Hourly Data Report for March 22, 2003

TORONTO CITY
ONTARIO

43°40'00.000" N
79°24'00.000" W
112.50 m
6158355
71508
XTO

Download Data

Hourly Data (March 2003)
Hourly Data Report for March 22, 2003
TIME
LST
Temp Definition
°C
Dew Point Definition
°C
Rel Hum Definition
%
Precip. Amount Definition
mm

Wind Dir Definition
10's deg

Wind Spd Definition
km/h
Visibility Definition
km
Stn Press Definition
kPa
Hmdx Definition


Wind Chill Definition


Weather Definition


00:00 4.9 4.6 98   LegendMM LegendMM LegendMM 99.24     LegendNANA
01:00 5.6 5.5 99   LegendMM LegendMM LegendMM 99.31     LegendNANA
02:00 5.8 5.2 96   LegendMM LegendMM LegendMM 99.35     LegendNANA
03:00 4.7 2.2 84   LegendMM LegendMM LegendMM 99.43     LegendNANA
04:00 3.8 2.0 88   LegendMM LegendMM LegendMM 99.46     LegendNANA
05:00 2.9 1.6 91   LegendMM LegendMM LegendMM 99.50     LegendNANA
06:00 2.4 1.5 94   LegendMM LegendMM LegendMM 99.51     LegendNANA
07:00 2.6 1.6 93   LegendMM LegendMM LegendMM 99.51     LegendNANA
08:00 3.0 1.5 90   LegendMM LegendMM LegendMM 99.52     LegendNANA
09:00 3.9 1.8 86   LegendMM LegendMM LegendMM 99.49     LegendNANA
10:00 4.4 1.9 84   LegendMM LegendMM LegendMM 99.50     LegendNANA
11:00 5.4 2.4 81   LegendMM LegendMM LegendMM 99.46     LegendNANA
12:00 5.3 2.5 82   LegendMM LegendMM LegendMM 99.45     LegendNANA
13:00 5.2 2.7 84   LegendMM LegendMM LegendMM 99.41     LegendNANA
14:00 5.9 2.6 79   LegendMM LegendMM LegendMM 99.40     LegendNANA
15:00 5.6 2.1 78   LegendMM LegendMM LegendMM 99.43     LegendNANA
16:00 5.4 3.3 86   LegendMM LegendMM LegendMM 99.45     LegendNANA
17:00 5.3 3.3 87   LegendMM LegendMM LegendMM 99.48     LegendNANA
18:00 5.1 3.4 89   LegendMM LegendMM LegendMM 99.55     LegendNANA
19:00 5.7 3.4 85   LegendMM LegendMM LegendMM 99.63     LegendNANA
20:00 5.4 2.6 82   LegendMM LegendMM LegendMM 99.68     LegendNANA
21:00 4.9 2.4 84   LegendMM LegendMM LegendMM 99.75     LegendNANA
22:00 4.2 1.4 82   LegendMM LegendMM LegendMM 99.79     LegendNANA
23:00 3.6 1.0 83   LegendMM LegendMM LegendMM 99.82     LegendNANA

Notes on Data Quality.

Legend

  • E = Estimated
  • M = Missing
  • NA = Not Available*
  • [empty] = Indicates an unobserved value
Date modified: